GOES 13 [B]

Last updated on Wed Sep 09 2020 05:41:48 GMT+0000 (Coordinated Universal Time)

1 29155U 06018A 20252.76385626 .00000037 00000-0 00000-0 0 9991 2 29155 0.0803 152.3982 0008446 50.8254 121.2897 1.00273994 22235
UTC large
Height (km)
Speed (km/s)
/
Latitude / Longitude
Inclination (degrees)
Orbital Period (minutes)
Azimuth
Elevation
Range (km)
Doppler Factor

Next 0 passes for location: London (51.5072 / 0.1276)

Sorry there are no passes over London.